Date/Time (UTC),ProbHail,ProbWind,ProbTor,MESH,VIL Density,Flash Rate,Max Flash Density,LJA sigma-level,Max 0-2km AzShear,LLAZ 98th%,MLAZ 98th%,MUCAPE,MLCAPE,CAPE -10C to -30C,MLCIN,SRH 0-1km AGL,EBShear,MeanWind 0-1km AGL,Norm. Sat. Growth Rate,PWAT,WBZ,AvgBeamHgt,size
2019/10/21 00:08,25,41,16,0.48,1.80,6,0.24,0.0,14,5,7,2508,2242,756,4,237,52.5,29.1,3.1,1.4,3352.8,930.0,265
2019/10/21 00:10,53,78,29,0.71,2.40,15,0.27,0.0,15,8,6,2510,2243,759,4,237,52.5,29.0,3.1,1.4,3352.8,920.0,239
2019/10/21 00:12,54,79,27,0.77,2.40,15,0.27,0.0,15,8,6,2519,2232,783,4,227,52.0,29.0,3.1,1.4,3352.8,950.0,71
2019/10/21 00:14,54,77,40,0.77,2.50,15,0.27,0.0,16,10,6,2524,2238,785,4,227,51.9,28.9,3.1,1.4,3352.8,930.0,60
2019/10/21 00:16,73,95,45,0.89,3.40,24,0.62,0.0,16,10,6,2518,2274,772,5,225,52.0,28.6,3.1,1.4,3383.28,840.0,255
2019/10/21 00:18,87,95,57,1.19,3.40,27,0.62,0.0,16,10,8,2518,2274,772,5,225,52.0,28.6,3.1,1.4,3383.28,840.0,255
2019/10/21 00:20,87,89,13,1.19,3.40,27,0.62,0.0,11,4,8,2516,2278,768,5,225,52.0,28.6,3.1,1.4,3383.28,820.0,271
2019/10/21 00:22,89,89,12,1.19,3.40,29,0.62,0.3,10,5,8,2516,2289,762,5,225,52.0,28.5,3.1,1.4,3383.28,780.0,214
2019/10/21 00:24,85,89,12,1.10,3.40,29,0.62,0.0,10,5,8,2502,2302,749,5,224,52.0,28.4,3.1,1.4,3413.7599999999998,710.0,217
2019/10/21 00:26,85,89,16,1.10,3.40,29,0.62,0.0,10,5,9,2502,2302,749,5,224,52.0,28.4,3.1,1.4,3413.7599999999998,710.0,217
2019/10/21 00:28,71,94,11,0.90,3.10,29,0.62,0.1,7,5,9,2499,2303,749,5,223,52.0,28.4,3.1,1.4,3413.7599999999998,700.0,212
2019/10/21 00:30,58,88,18,0.90,3.10,17,0.62,0.6,7,5,10,2483,2309,741,6,222,52.1,28.3,3.1,1.4,3413.7599999999998,650.0,229
2019/10/21 00:32,62,84,20,0.92,3.10,17,0.62,0.0,7,5,11,2479,2310,739,6,221,52.1,28.2,3.1,1.4,3413.7599999999998,630.0,214
2019/10/21 00:34,72,85,20,1.06,3.10,17,0.62,0.0,9,5,11,2466,2313,735,6,221,52.1,28.2,3.1,1.4,3413.7599999999998,590.0,235
2019/10/21 00:36,78,91,20,1.10,3.40,23,0.62,3.9,9,5,10,2459,2314,734,7,222,52.1,28.2,3.1,1.4,3413.7599999999998,580.0,246
2019/10/21 00:38,95,95,25,1.49,3.60,37,0.62,5.0,9,6,9,2440,2316,731,8,222,52.2,28.1,3.1,1.4,3413.7599999999998,530.0,285
2019/10/21 00:40,95,95,21,1.49,3.60,37,0.62,0.0,9,6,9,2440,2316,731,8,222,52.2,28.1,3.1,1.4,3413.7599999999998,530.0,285
2019/10/21 00:42,95,95,19,1.49,3.60,37,0.62,0.3,9,6,9,2435,2317,729,9,223,52.3,28.1,3.1,1.4,3413.7599999999998,500.0,289
2019/10/21 00:44,95,95,27,1.49,3.60,37,0.62,0.0,9,6,13,2432,2317,731,9,223,52.3,28.0,3.1,1.4,3413.7599999999998,460.0,283
2019/10/21 00:46,91,95,18,1.49,3.70,23,0.62,0.1,6,5,14,2432,2318,732,9,223,52.3,27.9,3.1,1.4,3413.7599999999998,440.0,273
2019/10/21 00:48,93,95,18,1.32,3.70,38,0.86,1.4,6,5,9,2428,2321,730,9,223,52.3,27.9,3.1,1.4,3413.7599999999998,430.0,207
2019/10/21 00:50,95,95,16,1.41,3.70,38,0.86,0.0,6,5,9,2429,2322,733,9,223,52.3,27.8,3.1,1.4,3413.7599999999998,410.0,212
2019/10/21 00:52,95,95,12,1.41,3.50,38,0.86,0.6,6,5,9,2431,2326,742,10,222,52.3,27.7,3.1,1.4,3413.7599999999998,380.0,202
2019/10/21 00:54,95,92,10,1.41,3.50,38,0.86,0.0,6,4,8,2433,2331,747,10,223,52.3,27.7,3.1,1.4,3413.7599999999998,360.0,212
2019/10/21 00:56,93,95,12,1.26,3.50,34,0.86,0.0,6,5,7,2440,2338,755,10,223,52.3,27.6,3.1,1.4,3413.7599999999998,340.0,200
2019/10/21 00:58,91,92,11,1.17,3.40,34,0.86,1.0,7,5,6,2455,2350,767,10,224,52.5,27.6,3.1,1.4,3413.7599999999998,300.0,253
2019/10/21 01:00,96,92,8,1.46,3.70,34,0.86,0.4,7,5,6,2475,2367,783,10,226,52.5,27.5,3.1,1.4,3413.7599999999998,250.0,275
2019/10/21 01:02,97,95,23,1.46,3.70,47,1.10,1.7,13,6,6,2475,2367,783,10,226,52.5,27.5,3.1,1.4,3413.7599999999998,250.0,275
2019/10/21 01:04,99,95,29,2.07,4.20,47,1.10,0.0,13,7,5,2477,2369,786,10,226,52.5,27.4,3.1,1.4,3413.7599999999998,250.0,287
2019/10/21 01:06,99,95,44,2.07,4.20,47,1.10,0.3,13,7,9,2483,2371,792,10,226,52.5,27.4,3.1,1.4,3413.7599999999998,230.0,273
2019/10/21 01:08,99,95,44,2.07,4.20,47,1.10,0.5,13,7,9,2498,2386,801,10,228,52.6,27.3,3.1,1.4,3413.7599999999998,190.0,266
2019/10/21 01:10,99,95,18,1.72,3.80,56,1.10,1.9,7,5,9,2498,2386,801,10,228,52.6,27.3,3.1,1.4,3413.7599999999998,190.0,266
2019/10/21 01:12,94,95,33,1.35,3.40,56,1.10,0.0,11,7,9,2515,2399,812,10,229,52.7,27.2,0,1.4,3413.7599999999998,170.0,326
2019/10/21 01:14,95,95,33,1.39,3.60,56,1.10,0.2,11,7,8,2522,2403,815,11,231,52.7,27.2,0,1.4,3413.7599999999998,150.0,331
2019/10/21 01:16,97,95,38,1.59,3.60,56,1.10,0.0,10,8,8,2535,2414,823,11,232,52.8,27.1,0,1.4,3444.2400000000002,130.0,334
2019/10/21 01:18,95,95,46,1.59,3.60,35,1.10,0.3,10,8,10,2544,2424,828,11,235,52.9,27.0,0,1.4,3444.2400000000002,110.0,409
2019/10/21 01:20,96,95,49,1.59,3.50,51,1.10,1.3,10,8,10,2548,2429,831,11,236,53.0,27.0,0,1.4,3444.2400000000002,100.0,371
2019/10/21 01:22,95,95,49,1.44,3.40,51,1.10,0.0,13,8,7,2559,2444,840,10,239,53.1,26.8,0,1.4,3444.2400000000002,70.0,403
2019/10/21 01:24,95,95,51,1.44,3.40,51,1.10,0.0,13,9,7,2562,2447,847,10,239,53.1,26.6,0,1.4,3444.2400000000002,50.0,372
2019/10/21 01:26,91,95,35,1.19,3.30,51,1.10,1.3,13,9,7,2562,2447,848,10,239,53.1,26.6,0,1.4,3444.2400000000002,50.0,354
2019/10/21 01:28,82,97,36,0.92,3.10,52,1.10,0.4,13,9,7,2563,2448,850,9,240,53.1,26.6,0,1.4,3444.2400000000002,50.0,370
2019/10/21 01:30,82,97,31,0.93,3.20,52,1.10,0.0,10,7,6,2420,2374,855,28,272,54.4,32.3,0,1.5,3474.7200000000003,40.0,384
2019/10/21 01:32,86,95,29,0.99,3.20,61,1.10,2.1,10,7,5,2431,2383,859,28,272,54.5,32.4,0,1.5,3474.7200000000003,40.0,431
2019/10/21 01:34,86,95,20,0.99,3.20,61,1.02,0.0,9,6,6,2437,2387,863,28,271,54.6,32.4,0,1.5,3474.7200000000003,40.0,438
2019/10/21 01:36,96,95,22,1.43,3.70,61,1.02,0.0,8,6,7,2452,2399,869,27,271,54.6,32.4,0,1.5,3474.7200000000003,40.0,498
2019/10/21 01:38,96,95,39,1.43,3.70,61,1.02,0.0,12,7,6,2454,2400,869,27,271,54.6,32.4,0,1.5,3474.7200000000003,50.0,506
2019/10/21 01:40,96,95,45,1.43,3.70,61,1.02,1.5,12,7,8,2456,2404,871,27,271,54.7,32.4,0,1.5,3474.7200000000003,50.0,506
2019/10/21 01:42,95,95,45,1.38,3.70,61,1.02,0.0,10,7,7,2464,2411,873,27,271,54.7,32.4,0,1.5,3474.7200000000003,50.0,539
2019/10/21 01:44,84,97,52,0.93,3.10,63,1.02,1.7,12,8,7,2473,2418,873,27,271,54.7,32.4,0,1.5,3474.7200000000003,50.0,609
2019/10/21 01:46,95,95,46,1.34,3.20,63,1.02,0.0,12,8,7,2499,2439,881,26,271,54.9,32.4,0,1.5,3474.7200000000003,70.0,636
2019/10/21 01:48,98,95,47,1.85,3.70,63,1.02,0.0,12,8,7,2527,2463,893,25,271,55.0,32.4,0,1.5,3505.2000000000003,90.0,540
2019/10/21 01:50,99,95,37,2.28,4.30,66,1.02,1.0,9,7,7,2536,2485,904,25,269,55.1,32.5,0,1.5,3505.2000000000003,100.0,498
2019/10/21 01:52,99,95,26,2.28,4.30,66,0.70,0.0,9,7,8,2549,2498,908,24,270,55.2,32.5,0,1.5,3505.2000000000003,120.0,462
2019/10/21 01:54,99,95,39,2.33,4.30,66,0.70,0.0,12,7,8,2560,2509,914,24,271,55.3,32.5,0,1.5,3505.2000000000003,140.0,497
2019/10/21 01:56,99,95,61,2.33,3.70,81,0.70,2.6,12,7,10,2670,2560,978,26,301,54.9,34.6,0,1.5,3505.2000000000003,160.0,484
2019/10/21 01:58,99,95,67,2.33,3.70,83,0.70,0.1,14,7,10,2670,2562,976,26,300,55.0,34.7,0,1.5,3505.2000000000003,180.0,520
2019/10/21 02:00,99,95,64,1.95,3.80,83,0.70,0.0,14,7,10,2670,2564,976,26,298,55.1,34.8,0,1.5,3505.2000000000003,200.0,474
2019/10/21 02:02,99,95,70,1.83,3.80,83,0.70,0.0,8,7,11,2670,2566,975,26,296,55.2,34.9,0,1.5,3505.2000000000003,210.0,482
2019/10/21 02:04,99,95,70,1.83,3.80,83,0.70,0.0,8,7,9,2670,2566,973,26,294,55.3,35.0,0,1.5,3505.2000000000003,230.0,502
2019/10/21 02:06,98,95,83,1.74,3.60,72,0.70,0.3,15,9,8,2669,2565,972,26,294,55.4,35.1,0,1.5,3505.2000000000003,250.0,529
2019/10/21 02:08,98,95,73,2.18,4.00,53,0.70,0.6,15,9,8,2668,2564,969,25,292,55.6,35.3,0,1.5,3505.2000000000003,280.0,553
2019/10/21 02:10,99,95,73,2.57,4.00,72,0.70,1.7,15,10,8,2667,2564,967,25,292,55.7,35.3,0,1.5,3505.2000000000003,290.0,574
2019/10/21 02:12,99,95,80,2.72,4.00,76,0.70,0.3,20,10,8,2666,2562,966,26,292,55.9,35.4,0,1.5,3505.2000000000003,330.0,602
2019/10/21 02:14,99,95,90,2.72,4.00,76,0.70,0.0,20,10,11,2665,2562,964,26,291,56.0,35.5,0,1.5,3505.2000000000003,350.0,523
2019/10/21 02:16,99,95,92,2.72,3.80,76,0.70,0.2,20,11,11,2665,2561,963,26,291,56.0,35.6,0,1.5,3505.2000000000003,370.0,550
2019/10/21 02:18,99,95,92,2.59,3.80,76,0.70,0.2,14,11,11,2664,2559,962,26,292,56.2,35.7,0,1.5,3505.2000000000003,390.0,549
2019/10/21 02:20,98,95,92,2.59,3.80,61,0.70,0.5,14,11,11,2663,2557,961,26,292,56.3,35.7,0,1.5,3505.2000000000003,410.0,507
2019/10/21 02:22,99,95,92,2.40,4.10,87,0.84,1.9,14,11,11,2662,2555,959,26,293,56.4,35.7,0,1.5,3505.2000000000003,430.0,530
2019/10/21 02:24,99,95,91,2.28,4.10,87,0.84,0.0,20,10,11,2660,2552,958,26,295,56.5,35.8,0,1.5,3505.2000000000003,460.0,562
2019/10/21 02:26,99,95,92,2.09,4.10,87,0.84,0.0,20,11,11,2655,2549,957,26,296,56.7,35.8,0,1.5,3505.2000000000003,490.0,530
2019/10/21 02:28,98,95,92,1.65,3.60,87,0.84,0.2,21,12,11,2648,2545,956,26,297,57.0,35.8,0,1.5,3505.2000000000003,520.0,571
2019/10/21 02:30,98,95,92,1.54,3.50,76,0.84,1.2,21,12,11,2641,2539,954,26,303,57.2,35.9,0,1.6,3535.68,550.0,576
2019/10/21 02:32,98,95,92,1.54,3.80,78,0.84,0.1,21,12,11,2638,2537,954,26,305,57.3,35.9,0,1.6,3535.68,560.0,595
2019/10/21 02:34,98,95,92,1.54,3.80,78,0.84,0.0,21,13,11,2632,2534,953,26,308,57.4,35.9,0,1.6,3535.68,580.0,616
2019/10/21 02:36,98,95,92,1.48,3.80,78,0.84,0.4,21,13,9,2618,2524,951,26,314,57.8,36.0,0,1.6,3535.68,640.0,597
2019/10/21 02:38,97,95,92,1.42,3.50,78,0.84,0.2,21,13,9,2616,2523,951,26,314,57.9,36.0,0,1.6,3535.68,650.0,609
2019/10/21 02:40,96,95,90,1.42,3.60,62,0.84,0.0,22,10,10,2610,2519,950,26,317,58.1,36.0,0,1.6,3535.68,680.0,616
2019/10/21 02:42,96,95,90,1.42,3.60,62,0.84,0.0,22,10,11,2603,2515,948,27,322,58.2,36.0,0,1.6,3535.68,720.0,620
2019/10/21 02:44,98,95,92,1.89,3.60,62,0.84,0.2,19,11,10,2601,2515,947,27,322,58.3,36.0,0,1.6,3535.68,730.0,629
2019/10/21 02:46,98,95,92,1.89,3.60,62,0.84,0.5,19,11,10,2601,2512,945,27,328,58.4,36.0,0,1.6,3535.68,770.0,649
2019/10/21 02:48,99,95,92,1.89,3.60,66,0.84,2.0,19,11,13,2600,2510,943,27,329,58.4,36.0,0,1.6,3566.16,810.0,630
2019/10/21 02:50,99,95,92,1.74,3.30,107,0.84,15.6,19,11,13,2600,2508,941,27,333,58.5,36.0,0,1.6,3566.16,840.0,569
2019/10/21 02:52,98,95,92,1.44,3.20,114,0.84,0.4,19,11,13,2600,2507,941,27,333,58.6,35.9,0,1.6,3566.16,860.0,600
2019/10/21 02:54,98,95,93,1.44,3.20,114,0.84,0.0,19,11,10,2812,2497,980,16,362,61.7,41.1,0,1.6,3566.16,910.0,595
2019/10/21 02:56,98,95,87,1.42,3.20,114,0.84,0.0,13,10,10,2810,2496,982,16,362,61.8,41.2,0,1.6,3566.16,920.0,540
2019/10/21 02:58,98,95,84,1.39,3.10,114,0.84,0.9,13,10,11,2810,2496,983,16,362,61.9,41.3,0,1.6,3566.16,940.0,566
2019/10/21 03:00,97,95,84,1.39,3.10,87,0.84,0.0,13,10,11,2795,2487,981,17,364,62.0,41.5,0,1.6,3566.16,990.0,574
2019/10/21 03:02,97,95,84,1.39,3.20,87,0.84,0.0,13,10,11,2785,2484,979,17,367,62.0,41.6,0,1.6,3566.16,1000.0,553
2019/10/21 03:04,98,95,88,1.38,3.40,100,0.84,1.4,13,9,10,2773,2479,978,17,368,62.1,41.9,0,1.6,3566.16,1060.0,582
2019/10/21 03:06,99,95,88,1.59,3.40,100,0.84,0.0,13,9,10,2766,2475,976,18,370,62.1,42.1,0,1.6,3566.16,1100.0,583
2019/10/21 03:08,99,95,86,1.59,3.40,100,0.84,0.2,18,8,10,2761,2473,975,18,370,62.1,42.1,0,1.6,3566.16,1120.0,597
2019/10/21 03:10,98,95,86,1.59,3.30,104,0.84,1.4,11,8,10,2760,2475,976,19,370,62.0,42.3,0,1.6,3566.16,1170.0,660
2019/10/21 03:12,98,95,86,1.43,3.50,104,0.84,0.0,12,8,8,2764,2478,978,19,371,62.0,42.4,0,1.6,3566.16,1200.0,664
2019/10/21 03:14,98,95,80,1.33,3.50,121,0.84,1.4,14,8,8,2768,2483,978,20,371,61.9,42.5,0,1.6,3566.16,1230.0,583
2019/10/21 03:16,98,95,71,1.30,3.50,121,0.84,0.0,14,8,8,2768,2483,978,20,371,61.9,42.5,0,1.6,3566.16,1230.0,583
2019/10/21 03:18,96,95,71,1.17,3.20,121,0.84,0.0,14,8,8,2760,2487,977,20,372,61.8,42.7,0,1.6,3566.16,1290.0,543
2019/10/21 03:20,96,95,71,1.17,3.20,121,0.84,1.0,14,8,8,2760,2492,975,21,372,61.7,42.7,0,1.6,3566.16,1310.0,577
2019/10/21 03:22,94,95,62,1.12,3.20,89,0.84,0.0,11,7,8,2731,2484,970,23,373,61.2,42.9,0,1.6,3535.68,1390.0,604
2019/10/21 03:24,94,95,49,1.10,3.10,89,0.73,0.0,11,7,7,2731,2484,970,23,373,61.2,42.9,0,1.6,3535.68,1390.0,604
2019/10/21 03:26,89,95,49,0.94,3.00,89,0.73,0.0,10,7,7,2710,2478,966,24,373,60.6,43.0,0,1.6,3535.68,1430.0,625
2019/10/21 03:28,87,95,59,0.94,3.00,63,0.73,0.0,10,8,10,2710,2478,966,24,373,60.6,43.0,0,1.6,3535.68,1430.0,625
2019/10/21 03:30,90,95,75,1.05,3.10,67,0.73,0.2,13,8,10,2705,2483,964,24,373,60.1,43.0,0,1.6,3535.68,1460.0,591
2019/10/21 03:32,90,95,80,1.05,3.10,67,0.73,0.0,12,10,9,2687,2482,961,24,374,59.4,43.1,0,1.6,3535.68,1520.0,588
2019/10/21 03:34,90,95,80,1.05,3.10,67,0.73,0.0,12,10,10,2687,2482,961,24,374,59.4,43.1,0,1.6,3535.68,1520.0,588
2019/10/21 03:36,97,95,80,1.30,3.00,106,0.72,13.2,12,10,10,2677,2484,959,25,374,59.2,43.1,0,1.6,3535.68,1550.0,610
2019/10/21 03:38,98,95,79,1.30,3.00,109,0.72,0.1,12,9,9,2676,2487,958,25,374,59.0,43.1,0,1.6,3535.68,1570.0,640
2019/10/21 03:40,98,95,88,1.30,3.00,109,0.72,0.0,19,10,9,2668,2494,954,25,377,58.7,43.1,0,1.6,3535.68,1650.0,598
2019/10/21 03:42,97,95,84,1.24,3.10,109,0.66,0.1,19,10,9,2667,2498,952,25,378,58.6,43.1,0,1.6,3535.68,1670.0,674
2019/10/21 03:44,97,95,84,1.32,3.30,109,0.66,0.0,19,10,9,2661,2511,947,25,380,57.9,43.1,0,1.6,3535.68,1740.0,644
2019/10/21 03:46,98,95,82,1.80,3.30,79,0.66,0.0,19,10,8,2661,2511,947,25,380,57.9,43.1,0,1.6,3535.68,1740.0,644
2019/10/21 03:48,98,95,70,1.80,3.40,82,0.66,1.3,13,9,8,2661,2513,947,25,380,57.8,43.1,0,1.6,3535.68,1740.0,655
2019/10/21 03:50,98,95,76,1.80,3.40,82,0.66,0.0,13,9,10,2661,2522,946,25,381,57.4,43.0,0,1.6,3535.68,1790.0,638
2019/10/21 03:52,98,95,76,1.75,3.40,82,0.66,0.6,13,9,10,2673,2542,942,25,383,56.5,42.9,0,1.6,3535.68,1850.0,693
2019/10/21 03:54,97,95,78,1.50,3.40,90,0.66,1.3,13,9,8,2671,2545,940,25,385,56.1,42.9,0,1.6,3535.68,1890.0,681
2019/10/21 03:56,96,95,76,1.69,3.20,113,0.66,1.9,13,8,9,2973,2485,879,16,381,52.2,48.2,0,1.8,3535.68,1950.0,707
2019/10/21 03:58,96,95,70,1.69,3.20,115,0.66,0.1,14,8,9,2969,2486,879,16,380,51.8,48.4,0,1.8,3535.68,1990.0,716
2019/10/21 04:00,96,95,87,1.69,3.20,115,0.66,0.0,20,8,12,2967,2485,879,16,380,51.9,48.3,0,1.8,3535.68,1980.0,727
2019/10/21 04:02,95,95,89,1.52,3.20,115,0.66,0.0,19,9,11,2939,2487,878,15,379,50.4,48.6,0,1.8,3535.68,2060.0,675
2019/10/21 04:04,95,95,91,1.52,3.20,115,0.66,0.9,19,10,10,2923,2496,879,15,377,49.6,49.0,0,1.8,3535.68,2170.0,752
2019/10/21 04:06,90,95,89,1.33,3.20,91,0.66,0.0,19,10,9,2923,2496,879,15,377,49.6,49.0,0,1.8,3535.68,2170.0,752
2019/10/21 04:08,97,95,88,1.92,3.40,115,0.66,1.8,19,10,9,2907,2504,879,14,376,48.7,49.2,0,1.8,3535.68,2220.0,737
2019/10/21 04:10,97,95,74,1.92,3.40,115,0.59,0.0,15,9,8,2897,2510,879,14,376,48.3,49.4,0,1.8,3535.68,2270.0,796
2019/10/21 04:12,97,95,72,1.92,3.40,115,0.59,0.4,15,8,8,2876,2526,880,14,375,47.4,49.6,0,1.8,3535.68,2380.0,802
2019/10/21 04:14,97,95,70,1.87,3.40,154,0.84,2.7,15,8,8,2873,2534,880,14,375,47.1,49.7,0,1.9,3535.68,2440.0,841
2019/10/21 04:16,96,95,62,1.68,3.40,154,0.84,0.0,9,7,8,2873,2534,880,14,375,47.1,49.7,0,1.9,3535.68,2440.0,841
2019/10/21 04:18,96,95,52,1.61,3.40,154,0.84,0.2,11,7,7,2859,2539,881,15,375,46.6,49.8,0,1.8,3535.68,2490.0,840
2019/10/21 04:20,97,95,52,1.83,3.50,154,0.84,0.2,9,7,7,2848,2544,881,15,376,46.2,49.8,0,1.8,3566.16,2560.0,789
2019/10/21 04:22,97,95,51,1.83,3.50,103,0.84,0.0,13,7,7,2825,2550,884,16,378,46.0,49.8,0,1.8,3566.16,2670.0,775
2019/10/21 04:24,97,95,51,1.83,3.50,103,0.84,0.0,13,7,7,2825,2550,884,16,378,46.0,49.8,0,1.8,3566.16,2670.0,775
2019/10/21 04:26,94,95,51,1.50,3.50,119,0.84,1.2,13,7,6,2815,2552,888,16,378,45.9,49.8,0,1.9,3566.16,2740.0,754
2019/10/21 04:28,94,95,51,1.50,3.50,119,0.84,0.0,13,7,6,2811,2553,889,16,378,45.8,49.8,0,1.9,3566.16,2760.0,738
2019/10/21 04:30,87,95,46,1.17,3.50,119,0.84,0.0,13,7,6,2811,2553,889,16,378,45.8,49.8,0,1.9,3566.16,2760.0,738
2019/10/21 04:32,89,95,46,1.17,3.50,119,0.84,0.0,13,7,6,2796,2556,897,18,380,45.6,49.7,0,1.8,3566.16,2890.0,710
2019/10/21 04:34,89,95,38,1.17,3.50,99,0.84,1.3,7,6,5,2788,2557,901,19,382,45.6,49.6,0,1.8,3566.16,2960.0,638
2019/10/21 04:36,67,97,20,0.76,2.70,99,0.84,0.0,7,6,4,2764,2559,910,21,383,45.5,49.4,0,1.8,3566.16,3090.0,664
2019/10/21 04:38,71,95,22,0.81,2.90,99,0.84,0.0,10,6,5,2754,2559,912,22,384,45.5,49.3,0,1.8,3566.16,3130.0,605
2019/10/21 04:40,71,95,22,0.81,2.90,99,0.84,1.0,10,6,5,2736,2559,920,23,382,45.3,49.1,0,1.8,3566.16,3210.0,684
2019/10/21 04:42,62,97,26,0.81,2.90,75,0.84,0.0,10,6,6,2739,2559,919,23,382,45.3,49.1,0,1.8,3566.16,3210.0,687
2019/10/21 04:44,72,95,19,0.83,3.10,104,0.84,1.6,7,5,6,2724,2558,924,24,381,45.5,48.9,0,1.8,3566.16,3220.0,591
2019/10/21 04:46,72,95,12,0.84,3.10,104,0.68,0.0,6,5,5,2714,2555,929,25,377,45.5,48.5,0,1.8,3535.68,3190.0,654
2019/10/21 04:48,72,95,12,0.84,3.10,104,0.68,1.1,7,5,6,2711,2552,931,26,375,45.6,48.3,0,1.8,3535.68,3190.0,600
2019/10/21 04:50,72,95,16,0.84,2.90,104,0.68,0.0,8,6,6,2709,2545,937,27,369,45.7,47.8,0,1.8,3535.68,3160.0,669
2019/10/21 04:52,65,97,20,0.79,2.70,92,0.68,0.0,8,6,7,2708,2543,940,27,368,45.7,47.6,0,1.8,3535.68,3130.0,635
2019/10/21 04:54,65,97,21,0.79,2.70,92,0.68,0.0,8,6,6,2831,2508,942,32,429,46.8,52.3,0,1.8,3535.68,3130.0,590
2019/10/21 04:56,56,97,20,0.79,2.70,61,0.68,0.0,8,6,6,2833,2509,955,33,418,48.0,52.5,0,1.8,3535.68,3030.0,634
2019/10/21 04:58,39,90,33,0.62,2.20,58,0.68,0.0,9,7,8,2833,2509,955,33,418,48.0,52.5,0,1.8,3535.68,3030.0,634
2019/10/21 05:00,28,89,33,0.57,2.20,51,0.68,0.0,9,7,8,2826,2511,957,33,421,47.7,52.4,0,1.8,3535.68,3010.0,572
2019/10/21 05:02,27,89,44,0.57,2.20,47,0.68,2.0,10,8,8,2830,2518,971,34,410,49.0,52.5,0,1.8,3535.68,2860.0,584
2019/10/21 05:04,26,85,44,0.52,2.00,52,0.68,1.3,10,8,8,2830,2518,971,34,410,49.0,52.5,0,1.8,3535.68,2860.0,584
2019/10/21 05:06,51,88,44,0.79,2.30,52,0.67,0.0,10,8,8,2828,2521,971,34,411,48.9,52.5,0,1.8,3535.68,2860.0,551
2019/10/21 05:08,51,92,43,0.79,2.30,52,0.67,0.0,10,8,7,2831,2534,981,34,408,49.4,52.4,0,1.8,3535.68,2720.0,607
2019/10/21 05:10,51,95,61,0.79,2.60,52,0.67,0.0,11,8,10,2833,2542,985,38,401,50.5,52.5,0,1.8,3566.16,2670.0,560
2019/10/21 05:12,33,89,61,0.74,2.60,33,0.67,0.0,11,8,10,2833,2542,985,37,401,50.5,52.5,0,1.8,3566.16,2670.0,544
2019/10/21 05:14,45,85,63,1.00,2.60,24,0.67,0.0,11,8,4,2816,2540,975,33,415,48.6,52.4,0,1.8,3535.68,2770.0,279
2019/10/21 05:16,42,85,59,1.00,2.40,19,0.54,0.7,11,8,4,2817,2546,978,34,412,48.9,52.5,0,1.8,3535.68,2740.0,237
2019/10/21 05:18,42,60,6,1.00,2.40,19,0.54,0.0,4,3,4,2817,2546,978,34,412,48.9,52.5,0,1.8,3535.68,2740.0,237
2019/10/21 05:20,22,55,6,0.76,2.40,19,0.51,0.0,5,4,4,2820,2555,983,35,408,49.4,52.5,0,1.8,3535.68,2660.0,244
2019/10/21 05:22,22,62,6,0.76,2.40,19,0.51,0.0,6,4,4,2820,2555,983,35,408,49.4,52.5,0,1.8,3535.68,2660.0,244
2019/10/21 05:24,22,68,6,0.76,2.80,19,0.49,0.0,6,4,4,2824,2560,985,35,406,49.7,52.5,0,1.8,3535.68,2620.0,200
2019/10/21 05:26,16,65,12,0.76,2.80,8,0.49,0.0,8,6,6,2825,2571,989,37,402,50.3,52.4,0,1.8,3566.16,2530.0,143
2019/10/21 05:28,15,63,11,0.70,2.80,7,0.49,0.0,8,6,5,2835,2576,994,40,397,51.1,52.3,0,1.8,3566.16,2450.0,326
2019/10/21 05:30,6,58,11,0.54,2.60,6,0.49,0.0,8,6,5,2835,2575,993,39,398,51.1,52.3,0,1.8,3566.16,2450.0,337
2019/10/21 05:32,5,47,8,0.54,2.60,6,0.49,0.0,8,5,4,2841,2576,997,40,395,51.5,52.2,0,1.9,3566.16,2380.0,259
2019/10/21 05:34,5,47,8,0.54,2.60,6,0.49,0.0,8,4,5,2847,2579,999,42,390,52.0,52.0,0,1.9,3566.16,2310.0,270
2019/10/21 05:36,4,59,7,0.52,3.40,3,0.32,0.0,4,4,4,2847,2578,998,41,391,51.9,52.0,0,1.9,3566.16,2320.0,290
2019/10/21 05:38,5,63,5,0.52,3.40,3,0.32,0.0,6,4,5,2849,2578,1000,42,389,52.1,51.9,0,1.9,3566.16,2300.0,204
2019/10/21 05:40,8,63,7,0.61,3.40,2,0.32,0.0,6,5,5,2852,2578,1001,42,390,51.9,52.1,0,1.9,3566.16,2340.0,87
2019/10/21 05:42,8,58,7,0.61,2.80,2,0.32,0.0,6,5,5,2852,2578,1001,42,390,51.9,52.1,0,1.9,3566.16,2340.0,87
2019/10/21 05:44,8,62,8,0.61,2.80,2,0.32,0.0,7,6,5,2856,2575,1001,42,386,52.3,51.8,0,1.9,3566.16,2280.0,238
2019/10/21 05:46,7,63,19,0.61,2.80,2,0.32,0.0,8,8,8,2873,2566,1004,43,385,52.5,51.9,0,1.9,3566.16,2290.0,60
2019/10/21 05:48,3,65,21,0.44,2.80,1,0.32,0.0,8,8,8,2876,2564,1005,43,384,52.6,51.9,0,1.9,3566.16,2300.0,56
2019/10/21 05:50,1,56,19,0.21,2.10,1,0.20,0.0,8,8,5,2880,2562,1005,44,382,52.8,51.6,0,1.9,3566.16,2260.0,109
2019/10/21 05:52,1,56,19,0.21,2.10,1,0.20,0.0,8,8,6,2890,2560,1008,44,380,53.1,51.3,0,1.9,3566.16,2220.0,51
2019/10/21 05:54,2,35,6,0.21,1.40,1,0.20,0.0,6,6,5,2890,2560,1009,45,378,53.3,50.8,0,1.9,3566.16,2180.0,85
2019/10/21 05:56,1,38,11,0.21,1.60,1,0.20,0.0,6,6,6,2728,2461,801,14,428,53.4,53.4,0,2.0,3566.16,2160.0,52
2019/10/21 05:58,1,35,10,0.21,1.60,1,0.20,0.0,5,5,6,2724,2463,801,14,429,53.4,53.4,0,2.0,3566.16,2150.0,51
2019/10/21 06:00,1,35,9,0.26,1.60,1,0.08,0.0,5,5,6,2728,2458,800,14,420,53.4,53.5,0,2.0,3566.16,2130.0,51
2019/10/21 06:02,1,38,9,0.26,1.80,2,0.08,0.0,5,5,5,2732,2448,799,15,409,53.5,53.8,0,2.0,3566.16,2090.0,76
2019/10/21 06:04,1,38,9,0.26,1.80,2,0.08,0.0,5,5,5,2728,2448,799,15,410,53.5,53.8,0,2.0,3566.16,2080.0,67
2019/10/21 06:06,1,20,6,0.19,1.80,2,0.08,0.0,4,4,4,2734,2438,799,16,401,53.6,54.0,0,2.0,3566.16,2060.0,73
2019/10/21 06:08,1,6,6,0.37,1.20,2,0.08,0.0,4,4,4,2732,2436,800,16,400,53.6,54.0,0,2.0,3566.16,2050.0,74
2019/10/21 06:10,1,20,4,0.37,2.20,1,0.08,0.0,3,2,4,2719,2430,803,18,399,53.6,54.1,0,2.0,3566.16,2020.0,112
2019/10/21 06:12,1,29,6,0.37,2.20,1,0.08,0.0,5,3,3,2717,2421,805,19,397,53.7,54.2,0,2.0,3566.16,2009.9999999999998,97
2019/10/21 06:14,1,37,7,0.37,2.20,1,0.08,0.0,5,4,3,2719,2417,806,20,396,53.8,54.2,0,2.0,3566.16,2020.0,54
2019/10/21 06:16,1,33,7,0.31,2.10,1,0.08,0.0,5,4,4,2688,2400,814,23,395,53.7,54.3,0,2.0,3566.16,1980.0,64
2019/10/21 06:18,1,28,7,0.15,2.10,1,0.08,0.0,5,4,4,2688,2400,814,23,395,53.7,54.3,0,2.0,3566.16,1980.0,64
2019/10/21 06:20,1,5,6,0.19,1.40,1,0.08,0.0,5,4,4,2688,2400,814,23,395,53.7,54.3,0,2.0,3566.16,1980.0,64
